Regional Weather Roundup
Issued by NWS Cleveland, OH

Home | Current Version | Previous Version | Graphics & Text | Print | Product List | Glossary On
Versions: 1 2 3 4 5 6 7 8 9 10 11 12 13 14 15 16 17 18 19 20 21 22 23 24 25 26 27 28 29 30 31 32 33 34 35 36 37 38 39 40 41 42 43 44 45 46 47 48 49 50
197
ASUS41 KCLE 121800
RWRCLE
OHIO REGIONAL WEATHER ROUNDUP
NATIONAL WEATHER SERVICE WILMINGTON, OH
100 PM EST FRI FEB 12 2016

NOTE: "FAIR" INDICATES FEW OR NO CLOUDS BELOW 12,000 FEET WITH NO
SIGNIFICANT WEATHER AND/OR OBSTRUCTIONS TO VISIBILITY.

OHZ001>008-015>018-024>027-034-035-043-044-121900-
   NORTHWEST OHIO

CITY           SKY/WX    TMP DP  RH WIND       PRES   REMARKS
DEFIANCE       CLOUDY    25  11  55 W12G20    30.04F WCI  14
FINDLAY        CLOUDY    24  10  55 W21G28    30.03F WCI   9
TOLEDO EXPRESS CLOUDY    23  11  60 W22G28    30.01F WCI   8
TOLEDO EXEC      N/A    N/A N/A N/A MISG      30.02F
LIMA           CLOUDY    23   9  55 W17       30.04F WCI   9
$$

OHZ009>014-019>023-028>033-038-089-121900-
   NORTHEAST OHIO

CITY           SKY/WX    TMP DP  RH WIND       PRES   REMARKS
CLE-HOPKINS    CLOUDY    22   8  55 SW20G26   30.03F WCI   7
CLE-LAKEFRONT  CLOUDY    23  10  57 SW14G24   30.01F WCI  11
CUY CO. ARPT   CLOUDY    23  10  58 SW16G28   30.00F WCI  10
LORAIN-ELYRIA  CLOUDY    22   7  52 W17G28    30.01F WCI   8
ASHTABULA      CLOUDY    21   6  52 SW18G25   29.99F WCI   6
AKRON-CANTON   CLOUDY    19   7  59 SW17      30.02F WCI   4
WOOSTER        NOT AVBL
MANSFIELD      CLOUDY    20   8  60 SW20      30.00F WCI   4
YOUNGSTOWN     CLOUDY    19   7  59 SW14      30.00F WCI   6
$$

OHZ042-051>053-060>062-070>072-077>081-121900-
  SOUTHWEST OHIO

CITY           SKY/WX    TMP DP  RH WIND       PRES   REMARKS
CINC-COVINGTON CLOUDY    27  18  69 SW8       30.11F WCI  19
CINC-LUNKEN    CLOUDY    28  18  66 W10       30.15F WCI  19
HAMILTON       CLOUDY    28  17  63 SW8       30.14F WCI  20
DAYTON         NOT AVBL
WRIGHT-PAT AFB CLOUDY    25  11  54 SW14      30.08F WCI  13
DAYTON GENERAL CLOUDY    25  13  60 W8        30.09F WCI  16
WILMINGTON     CLOUDY    23  15  71 W12       30.08F WCI  12
$$

OHZ036-037-039>041-045>050-054>059-063>069-073>076-082>088-121900-
  CENTRAL AND SOUTHEAST OHIO

CITY           SKY/WX    TMP DP  RH WIND       PRES   REMARKS
COLUMBUS       CLOUDY    22   8  55 SW8       30.08F WCI  12
OSU AIRPORT    CLOUDY    24  10  55 W14       30.06F WCI  12
BOLTON FIELD   CLOUDY    21  12  68 SW8       30.09F WCI  12
RICKENBACK AFB NOT AVBL
NEWARK         CLOUDY    23   8  52 SW10      30.07F WCI  12
MARION         CLOUDY    22   7  52 SW12      30.04F WCI  10
LANCASTER      CLOUDY    23   8  52 W10       30.10F WCI  12
ZANESVILLE     CLOUDY    24   6  46 W9        30.08F WCI  14
NEW PHILLY     CLOUDY    21   8  57 SW9       30.07F WCI  11
$$




USA.gov is the U.S. government's official web portal to all federal, state and local government web resources and services.